EW8862 Weather Reports


time (UTC)temp
F
wind
direction
speed
knots
gust
knots
rain 1hr
in
rain 24hr
in
rain mn
in
humidity
%
barometer
mb
20260506044515 46 69 0.9 6.1 0.00 0.00 0.00 78 1013.5
20260506043021 46 77 0.9 6.1 0.00 0.00 0.00 78 1013.4
20260506041524 47 77 1.7 4.3 0.00 0.00 0.00 78 1013.5
20260506040005 47 155 1.7 5.2 0.00 0.00 0.00 78 1013.5
20260506034513 47 50 1.7 7.0 0.00 0.00 0.00 77 1013.4
20260506033026 47 24 1.7 7.0 0.00 0.00 0.00 77 1013.3
20260506031538 48 84 1.7 5.2 0.00 0.00 0.00 78 1013.3
20260506030030 48 79 0.9 4.3 0.00 0.00 0.00 79 1013.5
20260506024510 48 69 1.7 6.1 0.00 0.00 0.00 78 1013.4
20260506023014 49 86 1.7 3.5 0.00 0.00 0.00 78 1013.5
20260506021516 49 321 0.0 3.5 0.00 0.00 0.00 77 1013.4
20260506020025 49 79 0.9 4.3 0.00 0.00 0.00 76 1013.5
20260506014527 49 56 0.9 6.1 0.00 0.00 0.00 78 1013.5
20260506013008 49 45 0.9 5.2 0.00 0.00 0.00 78 1013.5
20260506011519 50 85 1.7 4.3 0.00 0.00 0.00 78 1013.6
20260506010044 50 24 0.9 5.2 0.00 0.00 0.00 78 1013.5
20260506004524 50 21 0.9 2.6 0.00 0.00 0.00 77 1013.6
20260506003027 50 72 1.7 6.1 0.00 0.00 0.00 77 1013.6
20260506001510 50 74 1.7 3.5 0.00 0.00 0.00 76 1013.6
20260506000018 50 95 1.7 7.0 0.00 0.00 0.00 76 1013.7
20260505234522 51 38 1.7 5.2 0.00 0.00 0.00 74 1013.7
20260505233025 51 61 0.9 7.0 0.00 0.00 0.00 73 1013.7
20260505231530 52 75 2.6 8.7 0.00 0.00 0.00 72 1013.6
20260505230010 52 78 2.6 6.1 0.00 0.00 0.00 71 1013.7
20260505224518 52 73 1.7 7.8 0.00 0.00 0.00 72 1013.7
20260505223021 53 83 0.9 6.1 0.00 0.00 0.00 71 1013.7
20260505221528 53 69 1.7 7.8 0.00 0.00 0.00 70 1013.6
20260505220030 54 51 2.6 7.8 0.00 0.00 0.00 69 1013.5
20260505214516 54 87 0.9 3.5 0.00 0.00 0.00 68 1013.5
20260505213026 55 88 0.9 5.2 0.00 0.00 0.00 67 1013.4
20260505211526 55 84 2.6 11.3 0.00 0.00 0.00 66 1013.2
20260505210026 55 4 0.9 6.1 0.00 0.00 0.00 67 1013.1
20260505204530 55 74 0.9 7.8 0.00 0.00 0.00 69 1013.0
20260505203029 56 39 1.7 7.0 0.00 0.00 0.00 68 1012.8
20260505201519 56 63 1.7 5.2 0.00 0.00 0.00 68 1012.8
20260505200026 57 56 0.9 5.2 0.00 0.00 0.00 68 1012.7
20260505194529 57 56 2.6 7.8 0.00 0.00 0.00 66 1012.5
20260505193030 57 25 1.7 3.5 0.00 0.00 0.00 65 1012.5
20260505191515 57 58 0.9 2.6 0.00 0.00 0.00 64 1012.3
20260505190032 58 39 0.9 3.5 0.00 0.00 0.00 64 1012.2
20260505184526 58 67 0.9 2.6 0.00 0.00 0.00 63 1012.2
20260505183031 58 53 1.7 3.5 0.00 0.00 0.00 63 1012.1
20260505181532 58 69 1.7 3.5 0.00 0.00 0.00 62 1012.1
20260505180017 59 44 0.9 4.3 0.00 0.00 0.00 62 1012.2
20260505174523 59 100 0.9 7.0 0.00 0.00 0.00 62 1012.1
20260505173036 59 84 2.6 6.1 0.00 0.00 0.00 60 1012.2
20260505171542 60 84 2.6 7.0 0.00 0.00 0.00 59 1012.2
20260505170030 60 56 2.6 7.0 0.00 0.00 0.00 59 1012.3
20260505164523 60 90 0.9 2.6 0.00 0.00 0.00 61 1012.3
20260505163024 60 68 1.7 3.5 0.00 0.00 0.00 60 1012.3
20260505161526 59 50 1.7 4.3 0.00 0.00 0.00 60 1012.3
20260505153021 59 106 0.9 6.1 0.00 0.00 0.00 63 1012.4
20260505151531 59 82 1.7 5.2 0.00 0.00 0.00 63 1012.5
20260505124526 60 347 0.9 6.1 0.00 0.00 0.00 57 1013.0
20260505123029 60 86 0.9 5.2 0.00 0.00 0.00 57 1013.0
20260505121532 61 59 0.9 4.3 0.00 0.00 0.00 57 1013.1
20260505120048 61 94 0.9 5.2 0.00 0.00 0.00 58 1013.1
20260505114523 59 23 1.7 4.3 0.00 0.00 0.00 62 1013.2
20260505113010 58 39 0.9 5.2 0.00 0.00 0.00 66 1013.2
20260505111517 58 82 0.9 4.3 0.00 0.00 0.00 68 1013.3
20260505101519 55 76 1.7 4.3 0.00 0.00 0.00 75 1013.6
20260505100022 54 60 1.7 6.1 0.00 0.00 0.00 75 1013.6
20260505094522 55 39 0.9 3.5 0.00 0.00 0.00 74 1013.7
20260505093025 55 115 0.9 5.2 0.00 0.00 0.00 76 1013.8
20260505091528 54 46 1.7 5.2 0.00 0.00 0.00 77 1013.8
20260505090026 54 72 0.9 3.5 0.00 0.00 0.00 77 1013.8
20260505084520 54 46 2.6 4.3 0.00 0.00 0.00 78 1013.9
20260505083021 54 94 0.9 4.3 0.00 0.00 0.00 81 1013.9
20260505081512 53 64 0.9 3.5 0.00 0.00 0.00 83 1014.0
20260505080011 52 283 1.7 3.5 0.00 0.00 0.00 83 1013.9
20260505074515 52 58 0.9 2.6 0.00 0.00 0.00 83 1013.9
20260505073032 52 110 0.9 3.5 0.00 0.00 0.00 84 1013.8
20260505071524 52 221 0.9 3.5 0.00 0.00 0.00 84 1013.9
20260505070010 52 80 0.9 3.5 0.00 0.00 0.00 85 1014.0
20260505064531 52 89 0.9 2.6 0.00 0.00 0.00 85 1014.0
20260505063019 51 286 0.0 3.5 0.00 0.00 0.00 86 1014.0
20260505061531 51 46 0.9 2.6 0.00 0.00 0.00 87 1014.0
20260505060028 50 34 0.0 0.9 0.00 0.00 0.00 87 1014.1
20260505054510 50 49 0.0 2.6 0.00 0.00 0.00 87 1014.1
20260505053013 50 47 0.9 3.5 0.00 0.00 0.00 87 1014.2